Flag for Israel Weather past 2 weeks in Safed, Israel

Now
63 °F

Passing clouds.


Feels Like: 63 °F
Forecast: 49 / 65 °F
Wind: 9 mph from Southwest

Location: Beirut Airport

Current Time: Apr 2, 2015 at 4:56:47 AM

Latest Report: Apr 2, 2015 at 4:00 AM


Visibility: N/A

Pressure: 30.01 "Hg

Humidity: 68%

Dew point: 52 °F

Location of SafedLocation

Historic Weather in Safed — Graph

°F

Safed temperature yesterday

Maximum temperature yesterday: 66 °F (at 11:00 AM)
Minimum temperature yesterday: 61 °F (at 5:00 AM)
Average temperature yesterday: 64 °F

Past Weeks' High & Low Weather Summary

 TemperatureHumidityPressure
High82 °F (Mar 28, 7:00 AM)88% (Mar 29, 9:00 PM)30.21 "Hg (Mar 29, 9:00 PM)
Low54 °F (Mar 22, 4:00 AM)21% (Mar 27, 1:00 PM)29.65 "Hg (Mar 28, 6:00 AM)
Average63 °F62%30.00 "Hg
* Reported Mar 18 2:00 AM — Apr 2 3:00 AM, Safed, Weather by CustomWeather, © 2015

Note: Actual official high and low records may vary slightly from our data, if they occured in-between our weather recording intervals... More about our weather records

Advertising

Safed weather history for previous 24 hours

 ConditionsComfort  
Time TempWeatherWind HumidityBarometerVisibility
3:00 AM
Thu, Apr 2
61 °FPassing clouds.5 mph72%30.01 "HgN/A
2:00 AM61 °FPassing clouds.6 mph72%30.04 "HgN/A
1:00 AM61 °FPassing clouds.6 mph68%30.04 "HgN/A
12:00 AM61 °FPassing clouds.6 mph72%30.04 "Hg5 mi
11:00 PM
Wed, Apr 1
61 °FPassing clouds.8 mph77%30.04 "Hg5 mi
10:00 PM61 °FPassing clouds.5 mph77%30.04 "Hg5 mi
9:00 PM63 °FPassing clouds.8 mph77%30.04 "Hg5 mi
8:00 PM63 °FPassing clouds.9 mph77%30.04 "Hg5 mi
7:00 PM64 °FScattered clouds.12 mph73%30.01 "Hg5 mi
6:00 PM64 °FScattered clouds.10 mph73%30.01 "Hg5 mi
5:00 PM66 °FScattered clouds.8 mph68%29.98 "Hg5 mi
4:00 PM66 °FScattered clouds.7 mph68%29.98 "Hg5 mi
3:00 PM66 °FScattered clouds.7 mph73%29.98 "Hg5 mi
2:00 PM66 °FPartly sunny.12 mph68%29.98 "Hg5 mi
1:00 PM66 °FPartly sunny.13 mph73%29.98 "Hg5 mi
12:00 PM66 °FPartly sunny.13 mph68%29.98 "Hg5 mi
11:00 AM66 °FPartly sunny.13 mph64%29.98 "Hg5 mi
10:00 AM64 °FPartly sunny.13 mph68%29.95 "Hg5 mi
9:00 AM63 °FPartly sunny.13 mph68%29.92 "Hg5 mi
8:00 AM61 °FThunderstorms. Partly sunny.8 mph77%29.89 "Hg4 mi
7:00 AM61 °FPassing clouds.2 mph77%29.89 "Hg4 mi
6:00 AM61 °FPassing clouds.7 mph83%29.86 "Hg4 mi
5:00 AM61 °FThunderstorms. Passing clouds.6 mph77%29.86 "Hg4 mi
4:00 AM63 °FPassing clouds.10 mph64%29.83 "Hg5 mi
Weather by CustomWeather, © 2015

See weather overviewHow to use our weather pages